Contact Us:
Email: info@sawbill.com
Phone: (218)663-7150
Fax: (218)663-7980
Mail: 4620 Sawbill Trail
Box 2129
Tofte, MN 55615


Powered by
Movable Type 3.15
 
Sawbill Weather History Archives: April 2016
Current Sawbill Weather History | « March 2016 | May 2016 »


Date

High
Temperature

Low
Temperature

Barometric
Pressure

Relative
Humidity 7AM

9 AM
Temperature

Moisture

Snow

4/30/16 52 22 30.12 93% 22 0
4/29/16 51 32 30.26 58% 38 0
4/28/16 54 32 30.06 82% 34 0
4/27/16 51 27 30.12 92% 34 0
4/26/16 54 20 30.08 92% 20 0
4/25/16 44 30 30.06 92% 32 .45"
4/24/16 40 33 29.96 90% 33 .09"
4/23/16 48 36 30.00 89% 36 .01"
4/22/16 47 33 30.18 33% 36 0
4/21/16 58 29 30.20 48% 30 .16"
4/20/16 60 34 30.02 73% 39 0
4/19/16 61 26 30.10 76% 42 0
4/18/16 44 31 30.36 87% 36 0
4/17/16 70 37 30.36 73% 37 .4"
4/16/16 68 39 30.28 67% 40 0
4/15/16 60 38 30.20 67% 53 0
4/14/16 54 36 30.12 73% 39 0
4/13/16 43 30 30.14 59% 35 0
4/12/16 36 22 30.22 78% 31 0
4/11/16 30 21 30.20 54% 22 .08" .5"
4/10/16 36 24 29.84 73% 24 .08" 1"
4/9/16 27 -5 29.86 82% 27 .02" Trace
4/8/16 26 -7 30.14 51% -5 .06" .5"
4/7/16 36 18 29.96 70% 19 .28" 3.5"
4/6/16 36 25 29.90 66% 26 0
4/5/16 35 9 29.86 82% 30 .6" 6"
4/4/16 28 8 30.22 51% 9 0
4/3/16 25 2 30.18 57% 11 .1" 1"
4/2/16 21 14 29.88 63% 16 .14" 1.5"
4/1/16 28 16 29.84 56% 16 .09" .5"
 


Home I Trip Planning I Rentals and Outfitting I Reservations I Campgrounds I Sawbill Store I Sawbill News I Contact

© 1997 - 2017, Sawbill Canoe Outfitters, Inc. I Privacy Policy